Theta_e
309 309 309 309 310 310 310 310 310 310 310 310 310 311 310 311 311 310 310 310 311 310 310 310 310 310 310 310 310 310 309 308 308 308 312 315 306 306 306 306 311 311 311 310 310 309 308 311 312 311 312 313 315 316 315 315 314 312 318 318 315 316 316 318 318 314 313 315 315 314 314 314 316 314 318 335 344 347 347 345 343 342 343 342 342 342 342 342
308 308 309 309 309 309 309 309 310 310 310 310 310 311 311 311 311 311 311 310 310 310 311 310 310 310 309 310 310 309 310 308 309 311 316 310 307 308 306 308 312 313 312 311 310 308 310 312 311 312 314 315 314 314 314 313 313 314 319 317 315 317 316 318 316 314 314 314 315 314 313 313 314 314 315 328 339 348 353 347 345 345 344 342 341 341 341 341
308 308 309 309 309 309 309 309 309 310 310 310 310 311 311 310 311 311 311 311 311 311 310 310 310 310 310 310 310 310 309 308 316 325 321 312 311 307 308 312 312 312 311 311 310 308 309 310 308 311 314 315 316 314 313 314 313 315 316 314 315 317 316 316 314 314 316 313 315 314 313 314 314 313 316 329 338 349 355 348 347 348 346 344 342 340 340 340
307 308 308 308 308 309 309 309 309 309 310 310 310 310 310 310 311 311 311 311 311 311 310 310 310 310 310 310 310 309 308 313 325 327 318 316 313 307 310 312 313 313 312 311 311 308 308 308 308 311 312 314 316 312 313 315 313 313 313 314 317 315 314 315 314 315 314 312 314 313 314 314 314 314 320 332 333 339 348 346 347 347 346 344 342 340 340 340
307 307 308 308 308 308 309 309 308 309 309 310 310 310 310 310 311 311 311 311 311 311 310 310 310 310 310 309 308 307 311 321 321 319 318 319 314 309 309 311 313 314 313 312 310 308 307 308 309 312 312 314 314 312 314 315 312 312 312 315 315 313 312 313 314 314 313 313 313 313 314 313 315 314 314 323 319 323 343 346 343 343 342 342 342 340 340 340
307 307 307 308 308 308 309 309 308 309 309 309 310 310 310 311 311 311 311 311 311 310 310 310 310 309 309 308 308 308 316 322 317 317 317 318 315 309 308 311 314 314 314 311 308 308 308 309 310 314 313 313 313 313 315 313 310 313 314 314 313 312 311 312 313 313 314 313 313 315 313 313 318 312 321 338 333 328 342 344 341 340 340 341 340 340 340 341
307 307 307 307 307 308 308 308 308 309 309 309 310 310 310 310 311 311 310 310 311 310 310 310 310 310 308 307 310 311 318 322 316 316 317 317 316 310 308 312 314 314 315 310 307 307 311 312 312 315 314 313 314 313 314 312 310 312 313 313 313 311 311 312 312 311 313 312 312 314 311 315 315 309 332 355 349 339 343 341 339 340 340 340 339 339 339 339
307 307 307 307 307 308 308 308 308 309 309 310 310 309 310 310 310 310 310 310 310 310 310 310 310 309 308 309 314 317 321 323 314 316 318 316 315 311 309 313 315 316 315 309 306 307 311 313 314 316 314 314 315 312 312 311 310 312 312 312 311 311 311 312 311 311 312 311 312 312 311 315 313 321 343 353 345 341 343 339 339 340 339 340 338 338 338 337
307 307 307 307 307 308 308 308 308 308 309 309 309 309 309 310 309 309 309 309 310 310 310 310 310 309 307 309 314 318 322 320 314 318 319 317 316 311 310 313 315 315 311 308 306 307 310 313 315 316 314 313 311 311 312 311 312 311 311 311 310 311 312 311 311 311 311 312 312 310 314 314 315 337 351 348 345 342 340 340 340 340 339 340 338 338 337 337
307 307 307 307 307 307 307 307 308 308 309 309 308 308 309 309 309 309 309 309 309 310 310 310 310 309 308 311 315 315 317 316 316 318 316 315 315 312 311 312 314 311 308 307 306 308 311 314 315 315 313 312 310 310 310 310 312 312 311 311 311 311 310 310 311 311 310 311 314 311 315 314 313 343 356 345 345 342 341 342 339 340 340 339 338 337 337 337
307 307 307 307 307 307 307 307 308 309 309 309 308 308 309 309 309 309 308 308 309 309 309 310 309 309 309 312 317 315 315 315 315 315 312 313 313 313 311 312 312 310 307 307 307 309 311 313 314 314 314 313 312 311 311 311 311 313 313 312 314 313 310 311 311 311 312 311 315 313 313 313 309 337 357 347 344 342 341 342 339 341 340 338 338 336 336 336
307 307 306 306 307 307 307 307 308 308 309 308 308 309 308 308 308 308 308 308 309 308 309 310 309 309 310 314 318 316 312 315 314 312 311 311 312 311 311 312 312 310 309 308 307 308 309 312 313 314 315 314 312 311 313 312 312 313 313 313 315 314 311 313 313 313 314 311 316 313 312 316 308 328 351 347 344 343 341 341 340 339 338 338 338 336 337 335
306 306 306 306 306 307 307 307 307 307 307 308 308 308 308 308 307 307 308 309 309 309 309 309 308 308 310 317 319 313 310 315 314 312 311 309 310 310 310 311 311 310 308 307 308 308 309 311 313 315 315 313 313 312 312 312 313 313 312 313 314 315 315 313 312 313 312 313 315 312 313 316 317 332 349 348 343 344 342 342 340 339 338 338 337 336 336 335
305 305 306 306 306 306 307 306 306 306 307 307 308 308 307 307 307 308 309 310 309 309 308 308 308 309 314 320 314 311 314 315 314 315 312 309 309 308 309 310 309 308 306 306 308 309 310 312 312 313 312 311 312 310 313 315 314 314 311 315 314 312 317 315 313 315 311 313 314 313 312 312 328 343 350 346 343 344 344 343 340 339 338 337 337 336 336 336
302 303 304 305 306 305 305 306 306 306 306 307 306 306 306 306 308 309 309 310 309 308 309 310 309 311 317 321 314 313 317 317 317 317 313 310 309 309 309 309 308 308 307 307 308 309 311 311 311 311 311 312 313 313 317 318 321 317 311 319 322 312 314 317 315 316 312 312 313 313 311 314 337 351 348 345 345 345 344 344 341 339 339 338 337 336 336 336
300 301 301 303 305 304 304 305 305 306 305 306 305 305 306 306 309 310 310 310 309 308 309 311 310 311 318 322 316 314 316 318 318 317 314 310 309 311 310 308 309 309 308 309 309 310 311 311 311 312 313 311 313 321 322 321 329 327 315 318 323 316 314 315 314 314 313 313 312 312 312 316 337 349 346 346 345 343 346 345 341 341 339 338 337 336 337 336
299 300 300 301 302 304 304 304 305 305 305 305 305 304 305 307 309 311 311 309 309 309 309 311 310 310 316 316 315 316 316 316 316 317 315 311 310 311 310 310 311 310 310 311 310 311 310 311 312 313 319 320 319 324 321 318 324 328 325 321 322 319 314 314 316 315 312 312 311 312 314 312 328 345 347 346 343 343 346 344 342 341 339 338 337 336 337 336
299 299 300 300 300 302 304 305 305 306 305 304 304 305 306 308 311 312 311 309 310 310 310 311 310 311 315 313 313 316 315 313 313 315 314 312 310 310 312 312 311 311 311 310 310 311 309 313 318 317 321 323 320 322 321 322 323 320 322 322 322 322 316 314 317 315 312 312 311 311 313 311 321 341 347 344 343 343 345 344 342 340 338 337 336 337 337 337
299 299 299 299 299 300 302 304 305 305 304 303 306 309 311 312 313 312 310 310 313 314 314 315 313 312 314 313 313 313 313 314 313 313 313 312 311 310 312 311 310 311 310 312 313 312 311 314 319 316 317 319 318 321 321 323 323 316 316 318 320 320 317 316 316 316 314 312 312 312 311 316 325 339 346 344 342 341 342 342 340 340 338 337 336 337 337 337
299 299 299 299 299 300 301 303 304 304 304 304 306 311 315 318 319 319 315 314 316 316 315 318 315 313 313 313 313 312 314 315 311 311 312 312 311 311 311 310 311 311 312 317 316 315 314 313 316 316 319 324 323 323 319 317 318 314 315 319 320 319 317 316 317 317 316 311 311 313 312 321 332 341 344 342 340 340 340 340 341 340 338 337 337 337 337 337
298 298 299 299 299 299 300 302 304 304 304 304 306 312 317 317 318 320 321 321 317 315 316 316 314 313 313 313 313 314 315 315 313 313 311 311 311 310 311 311 311 312 315 318 316 315 314 313 317 320 321 323 323 322 319 316 318 316 318 320 318 319 318 316 318 318 318 316 314 316 316 319 329 338 340 339 339 340 339 339 340 339 338 337 337 337 336 335
298 299 299 299 300 300 299 301 304 304 304 305 307 312 316 313 313 314 316 318 316 315 316 315 314 313 313 313 314 314 313 315 318 315 311 310 311 310 311 313 312 316 317 315 315 314 314 316 318 319 318 316 317 322 323 320 320 318 319 319 317 319 317 319 327 325 322 322 318 319 317 316 325 330 334 338 338 338 338 338 339 338 338 337 336 336 335 334
298 298 299 299 300 299 300 301 303 303 304 306 306 310 314 311 312 312 312 316 316 316 318 317 316 316 315 315 315 315 315 316 318 316 312 309 311 312 311 312 312 315 315 315 317 314 316 321 320 319 319 316 315 322 323 320 320 321 318 314 316 319 315 316 326 328 327 325 321 324 324 324 329 324 323 331 335 336 337 336 336 336 336 336 335 335 334 334
298 298 299 299 299 300 300 300 302 305 306 307 307 311 313 309 311 312 315 320 320 318 318 316 316 317 318 317 315 317 317 316 316 315 312 310 311 311 311 313 312 312 313 316 321 317 315 319 318 319 322 320 317 319 320 317 321 332 326 317 319 321 317 316 321 330 336 330 327 333 329 325 327 323 319 325 333 338 336 335 336 335 335 334 333 334 334 333
298 298 299 299 299 300 299 300 305 308 307 306 308 309 309 309 312 313 317 323 323 322 318 315 315 317 317 316 316 317 316 315 316 314 311 310 311 311 312 311 311 314 314 314 318 317 315 315 313 315 320 321 318 320 324 321 320 330 332 327 324 321 320 320 324 333 334 325 322 324 321 320 328 329 321 321 332 340 335 335 336 335 335 334 333 334 332 332
298 298 299 299 300 299 300 305 308 307 305 305 308 310 310 314 315 314 322 328 327 326 321 315 316 318 315 316 316 316 316 316 315 313 311 311 311 312 312 311 312 315 315 314 316 318 317 316 315 315 319 322 321 319 323 324 319 320 327 332 328 322 321 321 325 327 325 321 320 323 325 325 330 329 320 321 334 340 335 334 335 334 335 334 333 333 332 333
299 299 299 299 299 299 303 307 306 304 304 307 312 314 314 317 314 314 325 328 325 323 320 314 313 315 315 315 315 315 318 318 315 312 312 311 312 312 313 314 312 311 315 316 316 318 318 318 320 318 318 322 322 320 322 323 320 319 325 329 325 322 321 323 326 323 323 323 323 333 333 322 325 328 321 321 331 337 335 334 334 334 333 334 334 333 332 332
299 299 299 300 300 300 301 303 304 306 309 311 315 316 315 315 314 319 322 317 314 316 316 313 312 313 313 313 314 317 319 317 315 314 313 312 312 312 312 315 313 313 317 316 316 322 320 316 321 321 318 318 320 326 327 320 318 324 329 325 321 321 323 331 330 325 328 322 318 336 332 317 328 337 327 322 325 329 332 333 334 333 332 332 334 333 332 333
299 299 300 300 300 300 302 304 306 309 312 312 313 315 314 313 316 322 320 312 312 316 314 313 314 312 313 313 313 315 316 315 315 315 313 311 312 312 312 313 314 314 313 313 318 324 319 315 320 320 318 319 322 326 324 319 319 323 324 321 321 324 328 333 331 328 333 324 318 332 328 316 330 344 336 324 318 321 329 331 328 330 331 331 333 335 333 333
300 299 300 301 301 302 304 305 305 305 309 308 311 315 314 319 326 323 317 315 315 317 313 312 314 313 313 313 313 314 314 314 315 313 312 312 313 312 312 312 315 316 318 320 320 319 318 318 320 318 317 320 322 320 316 317 317 318 322 321 318 325 331 337 338 332 328 326 325 332 329 320 325 338 339 327 317 319 326 330 325 325 329 331 332 334 333 332
300 300 301 301 301 302 303 304 303 308 310 304 308 315 312 322 329 322 318 318 318 319 315 312 314 314 313 313 313 314 313 314 315 314 314 313 312 313 313 313 316 319 323 325 321 319 319 316 316 319 318 317 315 314 313 314 316 318 327 324 316 323 327 333 337 329 324 328 331 333 330 320 321 330 331 327 325 322 322 328 327 324 329 333 333 333 332 331
300 301 302 301 301 302 302 304 305 309 308 302 310 321 321 318 319 322 324 320 320 323 317 314 315 314 314 314 314 314 314 314 316 315 316 314 314 316 313 316 318 316 318 323 321 320 322 320 319 317 317 315 312 315 312 313 318 320 324 325 321 323 322 326 330 326 327 328 326 331 327 318 326 330 324 323 325 320 320 326 326 324 330 334 333 332 331 330
301 302 301 301 301 301 302 301 303 304 302 304 316 329 329 318 316 323 325 317 317 319 315 316 316 314 315 315 316 315 314 316 317 316 316 315 315 314 312 317 319 315 319 324 320 316 319 325 321 314 315 315 314 318 314 313 317 315 319 324 323 323 321 325 327 322 325 326 323 327 323 320 329 326 320 321 319 318 323 328 329 329 331 332 330 329 329 329
302 302 301 302 301 301 302 300 302 303 301 308 321 325 321 316 318 323 323 320 318 315 315 316 313 314 315 315 317 316 314 317 317 315 315 314 315 316 314 314 315 316 321 320 317 317 318 322 322 317 315 314 314 317 318 320 318 314 317 318 319 327 326 324 325 322 323 326 323 321 319 324 327 319 319 321 320 323 326 328 331 331 329 330 328 328 328 328
302 302 302 302 301 301 301 300 303 304 304 315 326 322 316 316 321 324 325 325 320 314 315 313 311 314 316 316 317 315 314 317 316 315 315 315 317 322 319 314 314 317 320 319 319 318 315 319 326 320 313 312 312 313 316 319 316 312 314 314 315 323 327 322 319 324 329 327 322 319 320 328 326 317 321 323 322 327 329 328 329 329 328 329 328 327 326 326
302 303 304 303 302 303 301 301 303 303 310 322 323 319 319 319 319 320 321 319 314 312 314 313 314 316 317 319 318 316 316 316 316 316 315 315 316 319 319 317 316 314 316 323 324 319 314 318 323 318 313 312 311 311 312 312 314 314 311 314 315 315 325 326 317 321 329 325 324 321 318 327 328 321 323 324 324 327 328 329 330 329 329 329 328 328 327 327
304 306 307 305 305 306 304 302 303 305 316 323 319 321 324 321 318 318 317 314 312 312 313 314 317 318 318 321 323 321 318 318 318 316 317 319 317 318 317 316 316 312 313 320 321 319 320 321 320 315 312 313 310 311 313 310 313 316 312 315 315 312 321 330 324 323 323 321 327 323 316 324 330 328 326 322 324 328 328 329 329 329 329 329 328 327 327 327
304 306 309 309 308 310 308 304 304 311 321 322 321 327 324 318 317 316 315 313 311 311 310 312 317 317 317 321 325 322 322 327 323 315 318 320 317 319 317 314 315 311 312 316 316 317 319 319 320 317 313 314 315 316 318 314 311 312 312 313 315 317 322 322 322 324 320 319 324 320 319 322 324 329 329 320 323 329 327 327 329 329 328 327 328 327 325 326
305 309 313 311 310 310 308 305 308 317 323 322 323 326 322 318 318 315 314 313 310 311 312 314 315 315 317 321 323 320 323 332 327 315 315 317 319 321 316 313 315 311 313 315 313 319 322 318 318 319 313 312 317 320 319 318 315 312 314 315 316 324 326 319 319 323 322 322 321 320 322 324 326 330 327 321 325 328 327 328 329 328 327 327 328 327 326 326
307 310 310 309 311 311 308 309 314 319 321 320 323 324 319 317 316 315 314 313 310 311 314 315 312 313 317 318 319 318 319 325 323 316 316 318 319 319 313 313 313 311 316 317 316 324 322 313 317 325 319 313 316 318 313 314 315 313 316 319 317 317 317 316 317 318 322 327 327 324 322 325 333 331 324 324 327 326 328 330 329 328 328 328 327 327 326 325
307 311 309 310 312 311 310 314 319 322 323 320 320 320 319 317 316 316 315 312 312 312 312 312 311 312 315 314 315 317 317 320 318 316 316 317 318 317 314 313 312 311 319 322 321 322 318 317 326 331 322 315 315 314 311 311 311 311 314 315 316 317 316 318 316 315 323 329 328 326 322 326 333 326 322 327 326 324 326 329 330 329 329 329 328 327 326 324
310 313 310 309 311 312 314 319 319 320 324 323 320 319 319 318 317 315 314 312 312 311 310 310 310 311 313 313 315 316 316 317 316 316 317 316 319 320 314 313 314 315 321 320 315 317 324 329 328 322 316 313 311 309 309 309 309 313 314 312 319 322 322 328 327 321 322 319 319 324 325 330 332 324 322 326 325 324 325 326 329 328 327 328 327 326 325 324
313 313 310 309 311 314 318 323 321 319 322 321 318 316 317 317 316 313 313 312 311 311 310 310 311 311 310 312 314 314 315 315 313 316 319 317 318 317 313 315 318 318 322 319 312 316 324 323 318 319 320 317 314 312 312 312 313 315 313 314 317 315 318 330 332 329 325 316 318 324 324 328 330 323 324 326 325 326 325 324 326 326 326 326 325 326 325 324
311 311 312 308 307 314 318 319 319 320 321 319 314 314 314 314 313 312 312 311 309 311 312 312 313 313 312 313 313 310 313 314 313 315 318 319 320 317 315 316 317 318 319 316 315 316 316 316 319 320 316 314 319 324 322 316 314 314 313 315 315 314 320 325 322 328 327 315 320 329 326 327 326 319 322 326 326 327 324 322 323 323 324 324 324 325 324 323
310 311 312 307 304 311 317 315 314 315 318 317 315 315 315 313 312 312 310 311 309 309 312 313 312 311 312 316 316 312 313 315 315 315 317 320 319 314 314 315 314 317 321 322 323 321 317 320 327 326 320 317 322 329 328 318 313 313 314 315 316 317 321 317 317 330 327 313 319 330 328 326 323 318 320 323 324 325 323 322 321 321 322 324 324 324 324 324
312 313 312 310 307 311 314 313 312 312 313 314 313 312 312 312 312 310 309 310 309 308 310 309 308 313 317 318 319 318 315 315 315 315 316 318 316 310 312 316 314 317 327 328 326 327 324 322 326 331 328 323 320 321 320 315 313 313 311 313 317 319 321 322 323 327 323 319 320 320 321 321 317 315 315 316 320 323 322 322 323 322 322 323 323 324 323 323
311 310 308 309 310 311 312 312 312 311 311 313 311 309 310 309 310 310 310 310 308 309 311 307 305 312 316 316 320 319 316 316 315 314 313 314 317 314 310 311 312 317 327 323 322 332 332 319 317 321 319 314 315 313 309 309 311 310 310 313 316 319 325 328 322 314 317 324 319 313 319 321 313 311 311 311 314 320 321 322 320 321 322 321 322 322 321 320
306 307 305 306 309 311 311 310 310 308 307 310 309 308 309 308 308 310 309 310 308 309 313 310 305 306 307 311 320 319 316 318 316 314 313 312 316 318 313 310 310 313 320 317 319 331 331 316 312 315 312 309 310 309 308 309 308 309 313 316 316 319 323 322 316 312 317 324 317 312 316 316 310 308 309 308 311 314 315 314 313 315 318 319 321 323 321 322
304 306 306 306 308 310 309 309 310 308 306 308 309 307 308 309 308 307 307 312 312 308 311 311 305 303 303 307 316 315 312 316 315 311 311 312 314 316 314 314 311 310 315 318 316 320 323 316 313 316 313 309 308 308 309 310 309 311 313 314 313 315 317 316 314 312 315 317 313 311 312 310 307 306 307 308 309 309 309 308 309 310 311 313 317 318 318 320
302 303 304 306 308 307 306 307 308 308 307 307 307 306 306 307 308 306 304 310 312 309 310 309 305 304 303 304 309 309 306 309 311 310 309 312 315 313 310 311 309 307 312 317 314 315 318 314 316 324 320 310 308 309 309 311 312 313 314 313 313 314 314 315 314 312 313 312 308 310 313 310 307 306 307 306 306 307 308 308 309 309 309 310 311 311 312 313
299 299 300 305 306 303 303 304 305 307 307 306 305 305 305 304 306 307 305 305 306 307 309 308 305 305 305 305 306 306 304 305 308 309 309 309 311 311 308 309 308 306 311 315 313 318 322 314 315 327 322 310 309 310 310 312 312 313 316 314 314 315 314 312 310 309 311 311 311 314 314 309 307 307 306 305 305 305 306 306 307 307 308 308 309 309 309 309
300 300 300 305 306 301 301 303 303 306 307 305 304 304 304 303 303 307 309 305 304 305 307 307 307 307 307 305 304 304 304 305 305 305 305 305 306 307 307 307 307 304 307 311 312 316 324 320 315 321 319 312 311 312 313 316 313 313 315 312 309 310 309 308 307 305 306 310 314 315 310 305 306 307 305 305 304 304 304 305 305 305 305 306 307 309 309 309
Wind_Speed
14 14 14 13 13 13 13 12 12 12 12 12 12 12 12 11 12 11 11 11 11 12 10 11 13 12 13 13 14 14 17 19 20 15 9 11 11 9 9 11 9 8 8 7 6 1 2 2 3 1 2 1 1 1 2 3 2 2 3 2 3 3 4 4 5 4 2 4 7 6 5 5 6 5 1 6 9 8 9 8 8 11 12 14 19 24 23 22
14 14 14 14 13 13 13 13 12 12 12 13 12 12 12 12 12 11 11 11 11 11 11 11 12 12 12 12 13 14 17 19 18 15 15 12 9 8 12 14 9 8 9 8 8 4 4 3 3 3 4 1 1 1 1 1 2 3 3 2 4 5 4 5 5 3 3 5 8 8 3 3 4 3 1 3 3 5 10 8 10 15 15 16 18 21 21 24
15 15 15 15 14 14 13 13 13 13 13 13 12 12 12 12 12 12 11 11 10 11 11 11 11 11 11 12 12 13 16 14 9 10 9 7 10 12 15 16 10 8 9 6 6 5 4 3 2 4 4 1 2 1 1 1 2 2 3 3 5 5 5 5 5 7 7 6 7 9 5 4 6 2 2 4 4 4 6 5 8 13 14 14 13 16 19 20
15 15 15 15 14 14 13 13 13 13 13 13 13 12 11 12 12 12 11 11 11 11 11 11 11 11 11 11 11 12 12 6 3 5 3 3 6 13 19 16 12 11 9 5 2 4 4 3 3 4 3 0 3 1 1 3 2 1 3 5 6 4 4 7 7 8 7 5 4 7 7 7 6 1 2 5 5 1 4 6 8 16 17 15 13 14 16 15
15 16 15 15 14 14 14 14 14 13 13 12 12 12 12 12 12 12 11 11 11 11 11 11 11 11 10 11 11 10 7 2 2 4 2 3 3 11 19 17 14 12 10 6 4 5 4 3 4 3 3 0 2 2 2 5 2 1 3 6 6 3 3 8 7 6 5 4 4 4 4 5 4 3 2 6 4 4 5 6 12 19 19 17 16 14 13 12
15 16 15 15 15 14 14 14 14 13 13 12 12 12 12 12 11 11 11 11 11 10 11 10 11 11 11 11 8 5 1 0 5 5 4 4 3 9 17 19 16 13 10 7 5 5 4 4 4 2 2 0 1 2 4 4 3 2 4 4 6 5 5 8 6 5 4 3 4 3 3 3 4 5 0 4 2 4 4 10 15 18 17 17 16 14 13 12
15 16 16 15 15 14 14 14 15 13 13 12 12 12 12 12 11 11 11 11 11 10 10 10 10 10 11 9 3 1 2 5 9 6 5 5 5 9 17 20 17 13 11 9 5 5 4 5 3 3 3 0 3 4 5 3 2 4 5 5 7 6 6 9 8 7 5 5 7 2 3 4 3 4 2 5 2 3 10 15 17 17 16 15 14 13 13 13
15 16 16 15 15 14 14 15 15 13 13 12 12 12 11 11 11 11 11 10 10 10 9 9 9 9 10 7 1 1 1 7 9 5 6 8 8 10 18 20 17 14 13 12 9 6 5 6 4 3 2 2 3 4 5 1 1 4 6 5 5 5 7 10 8 9 7 7 6 0 4 8 4 1 4 4 3 8 12 15 16 17 15 12 12 12 12 12
16 16 16 15 15 14 14 15 14 13 13 12 12 12 11 11 11 11 10 10 10 9 9 8 8 8 8 5 1 2 3 5 5 5 6 9 9 12 19 19 17 15 13 13 11 9 6 5 4 4 3 3 3 3 3 1 2 5 7 5 4 6 8 8 8 9 7 5 3 4 6 9 4 5 5 3 6 9 12 14 15 17 15 12 11 11 12 12
17 17 16 16 15 15 14 14 14 13 13 12 12 12 11 11 10 10 10 9 9 8 8 6 7 7 6 3 2 1 5 3 3 4 5 8 10 13 18 17 17 17 12 9 12 11 6 4 5 4 3 2 3 3 2 4 3 5 4 5 6 9 9 6 7 8 5 5 5 8 7 7 4 4 3 3 8 10 13 13 12 14 14 13 11 10 11 12
18 17 16 16 15 15 14 14 14 13 13 12 12 12 11 11 10 10 10 9 8 8 7 5 6 5 3 1 3 3 5 4 2 3 5 9 10 13 17 17 17 19 14 7 11 13 7 5 4 3 2 2 2 3 3 4 3 4 3 5 7 7 7 6 6 6 4 3 6 9 4 3 1 2 7 10 11 11 14 14 11 12 12 12 11 9 8 8
18 17 17 16 15 15 14 14 14 13 13 12 12 12 11 11 10 10 9 8 8 6 5 4 4 3 2 1 5 9 5 2 2 4 7 8 10 11 14 16 16 18 17 8 8 15 13 8 4 3 2 1 1 3 4 4 2 4 1 3 8 7 6 7 5 5 5 3 6 8 1 4 2 3 10 13 13 11 13 14 12 12 11 10 9 7 6 7
18 18 18 17 15 14 14 14 13 13 12 12 12 12 11 11 9 9 8 7 7 5 4 2 3 3 1 1 7 9 6 4 5 6 8 7 8 9 12 15 14 16 17 12 10 16 18 12 6 4 3 2 2 4 1 1 1 3 1 1 5 7 6 7 2 2 3 4 6 6 2 6 5 5 13 13 14 14 12 14 11 9 9 8 7 7 6 7
19 18 18 17 16 14 14 13 13 12 12 12 12 12 11 9 7 8 7 7 7 5 3 2 2 1 1 6 10 7 5 7 9 10 9 8 7 6 11 14 12 14 16 15 14 12 12 10 6 2 2 4 4 5 4 5 3 3 2 1 2 2 5 7 2 1 2 4 6 7 4 6 3 8 14 13 16 17 15 14 12 8 7 7 7 7 7 6
21 20 19 18 17 15 14 12 12 12 12 12 11 10 9 7 7 7 7 7 5 2 2 2 4 2 1 8 11 5 3 6 11 15 12 11 10 5 11 16 14 14 15 16 16 10 5 4 3 1 4 3 1 2 3 4 3 3 2 2 3 1 4 9 5 4 4 5 3 7 4 3 6 12 13 13 15 16 15 13 12 9 8 8 7 7 7 5
22 21 20 20 19 16 13 12 12 12 11 10 10 8 7 6 6 5 5 5 3 2 3 2 4 4 0 6 6 4 4 6 8 13 14 14 12 7 9 13 12 12 13 15 15 11 6 3 2 2 2 2 3 4 3 4 4 3 1 2 4 1 3 7 5 5 8 5 1 4 5 1 5 11 11 13 14 13 13 12 12 10 9 9 7 6 7 6
22 22 22 21 21 18 15 12 11 11 10 9 9 8 7 6 4 3 3 2 1 3 5 2 1 2 4 7 5 5 5 7 6 10 17 17 14 9 6 6 5 6 8 11 11 7 4 3 1 1 1 2 2 4 3 2 4 4 2 1 3 2 2 4 6 6 5 6 4 4 5 2 4 11 12 12 13 12 13 13 11 9 8 8 7 6 6 7
22 22 22 22 22 21 17 13 12 10 9 9 9 8 6 5 4 2 0 3 3 2 3 2 1 0 4 6 4 5 6 6 7 10 17 17 16 13 7 3 2 1 1 4 4 2 2 1 1 1 2 4 3 5 2 4 3 3 2 2 3 3 2 4 5 5 2 3 5 4 4 1 5 11 11 9 10 11 14 14 11 9 9 7 7 6 6 8
23 22 22 23 23 22 20 16 13 10 9 7 6 6 3 2 2 1 3 4 3 1 3 3 3 1 2 4 4 7 11 7 6 9 14 16 15 13 7 2 2 3 1 1 2 1 1 1 3 0 1 2 2 5 6 7 6 5 3 2 4 5 4 5 7 5 3 4 4 6 4 3 7 10 10 9 8 8 10 10 8 8 8 7 7 6 7 8
23 22 22 22 22 23 22 18 14 10 9 7 4 4 2 1 2 0 2 3 4 6 6 5 7 4 6 6 4 6 11 7 5 8 14 17 12 7 3 1 3 3 1 3 2 1 2 1 2 4 6 7 7 7 7 5 5 4 2 4 5 5 5 6 6 6 1 2 3 3 5 6 9 10 10 10 7 7 7 7 6 7 8 9 8 8 8 8
22 23 22 22 22 23 23 21 15 10 9 7 4 3 1 1 2 2 2 4 8 10 11 10 11 9 11 10 3 3 6 5 4 5 11 14 9 6 1 2 4 0 3 3 2 2 3 2 7 9 10 9 5 4 3 2 3 3 3 4 4 4 6 6 5 7 3 4 4 0 8 6 8 10 9 9 8 8 9 10 9 10 10 8 9 10 9 6
22 22 23 22 22 21 23 22 15 10 10 7 4 1 3 4 4 4 1 4 9 11 13 13 10 10 13 14 10 2 0 3 7 7 7 10 7 5 2 3 5 3 2 3 1 3 2 3 11 9 6 4 2 4 5 3 2 2 2 3 2 3 4 7 5 7 5 4 2 1 9 5 3 6 7 10 11 9 11 14 14 14 13 10 10 10 8 7
21 22 23 22 22 21 21 21 16 12 10 7 5 5 5 9 8 7 3 3 7 7 9 10 8 8 9 11 10 6 4 4 4 6 7 10 5 5 4 4 5 3 1 4 4 2 1 7 9 4 6 5 3 2 4 1 1 2 3 2 3 3 1 3 5 8 6 3 2 4 6 1 3 0 5 7 5 3 7 11 9 11 12 11 12 10 11 11
21 22 22 22 23 21 20 21 15 9 7 8 10 8 10 15 14 8 2 1 5 4 5 9 7 6 8 6 7 10 4 4 5 4 8 12 4 3 5 4 4 2 2 5 7 5 7 9 4 4 6 6 3 2 3 1 2 3 4 4 3 4 3 4 4 6 6 5 3 6 6 4 3 2 6 6 3 3 4 7 6 7 7 7 8 9 10 11
23 22 22 22 23 22 22 18 7 3 10 11 11 11 13 17 17 6 2 2 4 5 4 5 5 5 8 6 9 10 2 3 6 5 9 13 8 4 3 3 4 3 5 5 6 4 8 7 2 1 2 6 4 4 4 6 3 4 4 7 7 5 4 4 4 4 5 5 4 5 5 3 5 1 5 4 1 2 5 7 8 7 6 6 8 8 8 7
24 23 22 22 22 24 20 8 2 8 13 8 7 12 12 16 17 4 4 4 3 5 3 2 3 4 7 6 7 6 2 4 8 9 11 13 10 6 2 2 1 3 5 5 3 2 5 4 1 3 5 5 5 5 5 7 5 2 5 7 7 6 2 4 2 4 3 1 3 4 5 2 6 4 5 3 4 6 5 7 7 6 6 7 8 8 7 7
24 23 23 21 21 22 13 5 9 12 7 4 9 12 9 13 13 2 3 5 2 4 1 1 0 4 5 5 6 6 2 4 3 8 10 13 9 3 4 3 0 2 4 3 0 2 3 4 4 1 3 5 4 4 5 8 7 3 5 6 7 5 2 1 3 4 2 3 3 5 4 2 3 5 6 2 4 5 6 8 6 6 8 7 7 8 8 8
24 24 23 21 19 17 11 11 13 7 2 7 12 10 9 11 7 2 4 3 2 2 2 1 1 3 3 2 7 6 4 1 2 3 7 13 10 2 3 7 5 5 2 5 3 5 2 3 2 2 3 3 4 6 8 9 5 6 5 7 5 5 4 3 5 3 1 1 2 6 3 2 3 5 4 1 5 4 7 9 9 9 10 8 7 7 7 7
25 24 22 22 19 16 12 10 9 5 5 11 13 12 10 7 2 4 3 1 2 1 1 0 1 2 1 2 4 6 5 1 1 3 2 8 7 2 4 6 6 5 2 5 5 6 3 5 5 5 4 5 6 6 9 10 4 5 4 6 4 4 4 5 5 3 3 4 2 6 3 2 3 5 4 2 4 4 7 8 9 11 10 9 7 7 7 7
26 24 22 21 19 13 8 10 13 9 6 12 15 13 9 3 4 4 0 3 2 2 1 1 2 1 3 3 3 6 5 2 1 1 4 3 3 1 2 2 6 4 2 2 2 5 5 3 3 4 4 6 6 3 6 8 5 3 5 5 5 5 5 4 2 4 5 2 5 7 2 3 1 5 3 1 1 4 5 6 7 9 8 8 8 8 8 7
26 24 21 20 18 11 4 8 12 5 2 14 17 11 5 3 4 3 3 4 2 2 1 0 3 0 3 3 2 4 5 3 1 2 3 2 2 2 1 2 3 2 2 4 3 4 6 3 2 3 3 4 3 3 2 1 2 4 4 4 3 2 4 4 4 4 4 2 6 6 1 5 2 5 4 4 4 4 6 6 7 9 9 8 7 7 8 7
27 24 22 20 18 14 11 9 8 6 8 17 14 5 4 2 0 2 4 3 2 2 1 1 3 2 0 1 2 3 4 3 2 3 4 3 4 4 3 4 3 1 2 4 3 4 4 3 3 5 3 4 5 2 1 5 5 5 5 5 4 1 3 1 3 1 2 3 4 3 0 2 3 6 5 6 7 6 6 7 6 7 9 9 8 8 7 6
28 26 23 20 17 18 20 16 13 13 13 11 6 4 6 3 3 5 4 2 1 1 2 2 3 3 3 2 2 3 2 3 5 3 4 4 4 6 5 3 5 3 2 4 2 1 3 5 5 4 4 2 6 5 2 1 1 4 5 4 4 3 3 1 3 1 1 3 3 2 1 1 3 3 5 7 7 6 3 3 2 4 5 6 6 5 5 5
30 27 23 20 18 20 21 17 12 10 6 3 3 5 5 3 4 4 3 3 3 3 3 3 5 5 4 4 3 2 1 3 5 4 3 4 4 4 4 3 3 3 2 3 2 3 3 3 3 3 2 1 4 5 5 5 3 3 4 5 4 4 4 3 3 3 3 2 2 3 1 2 2 3 6 6 5 3 4 4 6 9 7 7 7 7 7 5
31 26 22 19 19 21 19 16 14 9 4 2 5 4 4 4 4 2 3 4 2 3 5 5 5 4 3 3 2 1 2 2 2 4 3 4 5 5 4 5 5 4 4 3 3 2 4 3 6 4 2 2 2 2 4 6 2 2 2 5 3 4 5 2 2 5 4 2 0 2 2 2 2 3 6 5 4 6 7 6 9 10 9 9 10 9 8 8
31 25 18 13 16 17 14 14 15 13 8 5 4 2 4 4 3 3 3 2 0 2 5 6 3 1 3 2 2 3 2 1 1 2 1 2 2 3 3 4 5 6 6 4 3 1 2 3 6 5 2 2 3 3 3 3 2 1 1 3 3 4 7 5 1 1 4 3 1 1 1 3 2 2 5 6 6 8 7 6 7 8 10 11 9 8 9 9
29 22 10 9 14 14 11 12 18 17 7 6 4 5 4 3 4 4 2 1 1 2 4 3 1 1 2 1 1 3 3 2 2 1 1 2 1 2 3 3 3 8 8 5 2 3 4 1 6 2 2 1 1 3 5 3 4 3 2 5 2 3 5 5 2 3 5 2 3 2 1 3 1 0 5 6 5 6 7 6 5 5 8 10 7 7 9 8
22 14 6 9 16 11 11 15 22 16 6 4 4 3 3 3 3 2 2 3 1 2 3 1 3 2 2 1 1 2 2 1 1 1 1 2 1 2 2 2 0 3 5 4 2 1 4 1 7 3 2 4 5 6 4 4 2 3 4 3 3 3 1 2 3 2 2 2 3 3 2 1 2 2 3 3 1 3 4 4 5 5 5 7 8 8 7 7
12 5 3 13 19 6 14 21 20 10 4 4 4 2 3 4 4 2 2 3 1 1 1 4 3 1 2 2 2 2 1 2 2 0 1 1 2 2 1 1 1 4 3 3 3 1 3 3 4 4 2 2 5 5 2 4 5 3 2 2 2 3 4 3 3 3 4 3 2 1 2 1 4 4 4 5 4 5 4 2 4 5 4 4 7 7 6 6
4 1 3 18 17 5 19 20 12 5 3 5 4 3 2 2 3 3 4 3 1 2 2 4 3 2 3 3 3 3 3 4 3 2 2 0 1 2 0 1 2 4 5 5 3 1 3 3 3 5 3 2 2 0 3 2 2 3 3 4 3 2 2 2 1 2 4 4 3 2 0 4 5 4 4 6 6 7 8 6 4 4 4 5 6 6 5 4
3 1 4 20 11 13 16 10 4 3 4 2 1 3 2 2 2 3 4 4 2 3 4 4 4 4 4 3 3 3 2 3 3 3 1 1 2 1 2 2 1 2 3 6 4 1 2 3 3 2 3 2 1 2 1 3 3 4 3 1 1 2 3 4 1 1 2 4 4 5 2 6 5 1 3 4 3 5 6 7 6 4 5 5 5 6 5 3
3 1 6 21 8 13 6 4 2 1 3 3 2 3 2 2 3 3 4 3 3 4 4 4 6 5 4 4 3 3 3 2 3 3 1 3 3 3 3 2 4 3 3 3 1 1 3 4 3 1 1 1 2 3 3 2 5 6 3 2 3 2 3 5 4 3 1 3 3 4 3 5 5 2 3 2 2 1 3 5 6 5 5 5 5 6 5 3
3 1 6 22 11 8 1 5 1 3 0 3 3 2 2 2 2 2 3 2 2 3 2 2 3 3 3 2 1 2 3 1 1 3 4 1 1 2 1 1 4 4 4 2 1 2 2 4 3 1 3 3 4 5 4 3 5 6 3 2 3 2 2 4 5 3 3 3 2 4 2 5 5 5 4 2 5 4 2 2 5 6 4 4 5 6 5 4
2 3 4 21 20 2 3 3 1 2 2 3 4 3 2 2 3 4 4 1 2 2 1 1 2 2 0 1 3 3 2 2 1 1 4 3 1 1 3 5 5 3 1 2 2 0 1 1 3 3 1 2 4 5 5 5 4 3 2 4 3 3 4 3 1 3 3 2 4 5 2 6 4 5 6 5 6 6 5 4 4 5 5 4 4 4 5 5
3 1 1 15 21 10 4 1 1 1 3 3 3 4 4 2 3 3 2 2 4 2 1 2 3 4 3 4 4 5 5 3 2 3 2 2 2 3 4 4 4 3 1 3 3 3 2 2 3 4 4 4 2 2 2 1 2 2 2 5 5 4 5 2 2 4 2 2 3 5 4 5 4 7 8 7 5 5 4 4 4 4 5 6 5 5 5 6
2 3 2 6 10 7 1 1 1 2 3 1 1 3 3 3 4 3 4 5 3 3 4 4 4 3 5 5 5 5 7 5 3 3 4 3 2 3 5 4 4 4 3 6 6 4 4 2 2 4 4 5 5 4 4 3 3 1 1 4 5 4 4 4 4 3 3 3 3 1 3 2 4 8 8 8 6 3 2 3 4 3 5 5 5 6 5 5
2 2 3 2 3 4 3 4 6 5 4 1 1 3 5 4 3 5 5 4 3 3 4 6 7 5 3 3 5 4 6 6 5 4 4 4 3 3 5 6 7 7 4 5 6 4 5 3 2 5 4 1 3 2 1 4 5 3 1 4 5 4 5 6 4 2 4 5 1 4 1 5 4 7 7 8 7 4 4 4 2 1 1 1 1 2 3 4
3 0 2 2 2 3 3 4 6 7 9 6 2 2 6 7 6 5 4 3 4 5 3 5 9 8 4 2 4 3 5 5 5 5 4 5 4 4 6 5 6 8 5 4 4 4 6 1 1 4 5 3 3 3 5 6 6 4 4 4 4 4 6 6 2 0 4 6 3 2 6 6 3 7 7 7 6 3 4 5 5 5 5 5 6 6 6 6
3 1 3 2 2 3 2 2 3 7 11 10 5 4 7 8 8 5 3 2 5 6 4 4 6 8 8 6 5 4 3 3 3 3 3 4 4 3 4 4 5 7 6 4 3 3 4 0 1 3 5 5 4 3 7 9 7 5 5 4 4 6 7 6 3 3 7 7 4 7 11 7 3 5 6 6 5 2 5 7 8 9 8 8 8 8 8 7
2 1 4 3 3 4 3 3 3 6 9 9 6 7 7 8 8 6 5 5 3 5 5 4 3 4 7 9 8 4 1 2 2 1 1 2 3 2 3 1 3 6 6 3 2 2 3 2 1 3 4 3 4 4 8 10 9 7 6 5 5 7 7 6 4 4 7 7 4 7 11 6 4 4 5 5 4 6 10 10 10 9 8 9 10 9 9 8
4 2 2 3 2 5 4 4 4 5 5 7 6 7 7 8 8 5 5 6 4 3 3 2 2 2 5 9 9 4 1 3 4 5 4 2 2 1 1 1 0 4 6 3 2 3 4 2 1 5 4 0 2 4 6 9 10 8 6 5 5 5 5 4 3 3 3 6 5 7 7 2 4 5 5 5 9 12 12 10 9 8 8 9 10 10 9 9
7 2 3 4 2 5 4 3 5 4 3 4 5 7 7 8 9 5 4 5 6 5 3 1 2 3 5 8 7 3 4 5 6 7 5 5 5 4 4 3 0 1 2 2 2 2 3 4 2 4 4 2 3 1 3 5 7 3 3 2 2 4 6 5 5 6 3 4 5 4 4 2 4 4 4 7 10 11 9 8 7 7 8 9 9 8 8 8
Wind_Direction
319 319 315 313 311 310 309 309 310 309 311 309 310 311 309 311 310 310 311 311 312 312 317 315 310 310 311 314 318 318 314 310 311 307 269 263 272 260 229 194 179 180 207 230 222 214 58 39 1 42 86 92 158 216 194 176 146 93 99 145 219 201 205 199 180 185 192 269 293 315 354 10 333 330 58 62 51 71 68 49 60 58 68 95 106 117 127 132
319 316 313 311 309 308 308 306 307 307 308 308 309 310 309 311 309 311 311 310 313 312 315 312 309 310 311 315 318 315 311 312 307 285 261 263 266 232 194 180 185 189 194 211 213 193 106 71 19 62 76 38 278 237 209 203 165 140 130 184 224 203 215 209 197 221 233 261 292 302 321 348 306 297 348 93 65 60 75 62 75 85 90 101 111 121 130 135
317 315 313 311 309 308 307 306 306 306 306 307 306 308 310 311 310 310 310 311 313 312 310 310 312 310 313 315 313 313 311 317 304 268 268 269 242 214 179 171 185 183 179 195 209 193 149 119 61 72 72 354 277 253 276 255 206 173 146 217 244 215 235 250 224 228 236 248 291 300 313 328 281 282 13 126 110 68 111 119 104 111 120 121 122 129 136 139
317 316 313 311 309 307 306 306 305 304 306 306 305 306 308 309 311 310 310 311 309 309 309 311 313 309 315 316 310 312 313 321 280 255 282 293 235 197 181 175 175 174 176 189 194 167 161 123 67 67 84 332 302 346 245 253 218 191 167 204 239 204 240 261 233 235 242 219 253 295 324 320 288 31 75 144 122 34 184 183 151 140 139 137 140 143 142 143
317 316 314 311 307 306 306 304 301 302 304 304 305 304 305 308 309 309 309 309 306 306 310 310 313 315 316 315 309 308 321 25 263 269 276 281 246 191 187 182 177 176 176 193 193 153 152 110 76 57 76 299 317 45 243 247 158 181 223 208 231 196 238 265 244 244 239 207 250 298 315 298 312 31 113 144 155 235 207 178 161 150 148 148 148 148 145 145
318 315 315 311 307 305 303 302 300 301 302 301 304 303 304 305 304 308 307 307 307 305 308 309 315 320 315 315 313 301 350 110 275 278 269 251 222 194 186 186 186 182 182 195 183 150 141 96 83 84 91 104 212 182 247 258 141 205 267 239 240 213 221 267 267 249 219 207 254 246 272 293 356 340 67 116 189 231 154 139 149 150 146 143 143 145 145 150
320 315 314 311 306 304 302 300 299 300 300 299 301 301 301 304 304 306 305 305 304 303 306 307 316 320 320 327 321 16 89 263 276 280 262 228 204 192 182 188 191 187 194 197 166 140 129 109 126 154 117 355 202 209 244 263 161 199 258 270 258 234 227 256 266 262 235 228 244 229 322 289 278 293 41 56 24 117 115 128 141 145 140 136 139 144 149 155
322 317 315 312 306 304 301 298 299 300 299 298 297 298 298 300 301 300 301 301 299 302 303 305 318 320 326 341 3 4 298 251 273 284 244 212 200 186 179 184 191 193 197 200 182 153 139 134 169 158 114 251 187 206 240 253 293 211 234 256 262 256 245 257 265 267 251 235 246 185 280 255 217 120 63 54 81 112 119 128 136 141 139 141 146 149 154 158
326 321 316 313 308 303 298 296 298 298 298 297 294 295 295 296 296 296 297 297 297 298 299 306 314 317 326 337 39 334 272 244 276 273 229 214 212 189 180 184 190 194 193 202 193 169 171 167 188 179 169 231 189 227 238 172 266 218 220 249 269 274 264 265 266 262 249 230 202 165 237 251 195 107 59 65 116 123 124 128 136 140 143 147 152 158 161 164
331 326 320 314 310 303 297 296 297 297 297 294 292 294 293 294 293 294 295 296 298 292 294 305 308 314 321 323 91 259 283 301 288 251 235 230 215 186 184 190 190 191 188 197 193 178 169 167 187 179 175 231 209 229 198 159 219 219 222 265 261 269 272 263 264 261 231 220 195 178 229 257 207 125 95 137 137 135 128 129 140 142 149 154 160 171 171 173
335 331 325 317 312 306 301 299 297 296 295 292 292 293 291 293 291 291 293 291 292 289 290 298 303 308 316 13 127 219 282 318 276 246 254 237 212 193 192 195 192 191 188 185 196 194 179 172 171 126 166 256 249 276 270 198 220 262 277 306 279 284 286 257 265 264 192 218 194 167 225 285 69 125 158 159 150 148 136 135 148 148 155 161 165 174 179 182
340 336 330 322 316 310 306 302 298 294 292 291 291 291 290 291 289 288 289 288 286 282 281 291 297 287 325 20 211 235 263 335 307 255 257 242 220 217 206 200 199 198 194 184 204 209 205 199 148 121 216 261 333 302 276 218 210 279 287 316 297 336 320 259 252 230 168 206 182 143 315 310 300 205 161 153 152 155 141 140 152 157 164 166 167 175 184 186
344 340 336 330 322 315 310 303 298 294 292 292 291 289 289 287 288 289 290 289 283 272 263 265 272 273 339 255 242 252 257 278 302 265 250 243 228 230 216 207 209 208 204 200 215 217 215 214 173 177 221 135 262 264 315 344 329 305 49 143 302 356 322 269 242 209 171 201 177 135 284 278 278 194 157 153 154 154 150 153 157 161 168 167 172 181 185 185
348 345 340 335 329 321 314 307 303 299 296 292 287 286 288 289 290 288 285 282 278 266 253 241 250 244 131 255 270 291 269 256 262 245 232 222 214 213 204 204 209 209 210 218 230 231 221 216 191 223 248 172 234 275 345 0 1 331 356 60 345 359 291 290 302 283 277 244 165 133 235 253 225 174 162 160 160 159 162 165 163 161 167 173 183 185 186 191
351 349 345 340 336 327 318 312 306 300 295 289 287 291 293 291 285 282 279 274 270 226 198 210 219 201 6 278 278 300 263 231 231 223 215 208 191 174 194 199 209 212 216 228 236 245 233 199 174 257 263 226 83 337 333 348 1 3 1 325 332 185 271 300 291 205 214 261 154 140 216 247 173 180 173 164 165 163 162 165 166 164 171 178 188 188 185 192
353 352 350 347 343 334 322 313 306 300 299 299 301 303 294 286 276 275 279 270 255 173 159 188 215 189 280 283 284 301 232 215 230 213 206 210 195 181 190 195 217 226 229 240 244 256 259 220 194 190 240 306 72 81 32 8 346 353 76 252 280 286 298 312 308 234 205 218 245 178 194 181 183 190 179 167 168 164 159 162 166 168 176 181 187 190 183 183
355 353 351 351 349 342 329 316 309 307 310 313 309 301 287 274 256 266 294 262 220 188 175 176 239 188 259 275 293 310 248 216 226 202 199 210 208 202 178 177 225 237 240 254 254 259 252 216 235 260 29 22 83 92 52 349 309 315 17 279 258 262 278 302 308 285 214 187 217 225 200 174 184 187 180 172 166 162 160 163 170 175 178 183 188 191 186 183
352 352 352 352 352 348 338 322 313 312 314 315 313 310 295 258 238 257 164 144 118 144 199 255 311 223 265 275 287 307 300 255 217 195 198 204 212 218 208 177 173 149 285 289 267 243 221 221 53 37 1 13 55 87 123 225 212 231 302 340 299 287 248 266 276 283 288 223 194 189 213 176 164 180 177 170 160 161 171 173 176 176 173 183 190 193 195 187
348 351 352 351 350 350 345 331 318 316 321 327 327 328 315 218 208 160 141 141 119 142 250 226 182 184 259 262 273 293 313 299 211 194 202 203 211 220 218 196 97 93 78 328 297 274 149 30 33 127 288 293 195 146 176 209 183 177 202 202 266 284 265 258 254 259 272 248 199 177 190 136 158 177 167 161 156 164 187 184 169 162 169 186 194 198 198 192
346 347 348 349 348 348 347 338 324 319 327 340 352 351 354 79 33 14 170 192 206 225 252 217 188 237 280 271 282 307 320 315 215 199 204 202 192 186 196 81 64 65 131 184 238 288 118 133 257 223 220 218 211 194 193 198 163 163 204 221 253 267 273 273 267 288 293 173 253 186 136 126 159 172 166 158 150 163 186 186 169 165 176 188 195 200 196 195
345 343 343 346 346 346 347 340 328 319 324 333 347 354 219 215 333 297 251 239 232 227 243 233 203 226 258 260 277 8 345 321 275 240 208 198 165 140 211 122 105 331 250 180 189 338 78 153 235 224 219 215 194 176 196 210 169 181 212 224 259 248 261 274 272 309 8 109 311 97 127 141 160 162 163 150 156 177 175 176 181 181 184 191 198 199 191 185
344 342 339 341 342 343 344 340 332 321 320 320 314 228 229 272 272 265 284 285 260 221 226 240 226 240 255 260 267 265 96 270 298 295 205 180 148 163 216 117 140 217 249 112 97 332 31 237 243 231 207 196 155 138 156 204 187 156 178 181 255 255 279 297 301 324 1 94 323 104 125 141 176 169 177 171 178 191 183 183 184 180 183 191 197 194 183 175
343 340 337 336 337 339 340 337 330 316 314 310 266 227 290 320 308 287 283 298 281 223 211 228 226 241 252 262 248 190 168 204 254 285 193 161 158 178 163 135 168 193 126 132 156 176 253 247 239 195 136 159 231 166 137 149 16 161 188 171 257 274 313 298 310 331 348 56 111 112 103 43 333 8 219 215 198 178 186 191 186 182 186 192 196 190 180 180
342 339 336 334 332 334 335 331 322 314 321 301 272 274 323 334 333 317 257 253 288 266 222 212 200 219 233 245 194 163 173 196 196 263 182 160 159 159 165 166 156 191 212 168 153 170 241 247 219 117 125 156 213 251 158 195 302 259 212 168 207 261 227 226 296 332 342 8 60 80 58 336 356 107 221 259 342 68 161 183 192 198 199 200 205 199 190 188
340 338 334 333 330 329 331 329 320 345 330 298 283 317 338 335 339 350 121 4 297 281 274 210 188 220 219 191 159 159 168 216 208 216 172 169 167 138 186 187 140 218 221 153 138 191 254 257 187 185 195 149 176 232 199 181 217 292 243 193 191 207 232 264 335 19 25 2 350 57 65 303 319 267 220 248 251 160 164 190 201 196 194 195 201 202 197 197
339 336 334 333 328 327 332 332 336 339 323 297 309 332 330 329 340 20 118 21 304 274 298 181 177 204 200 174 158 141 98 258 227 195 177 181 177 142 154 208 122 215 197 151 144 203 260 282 110 223 226 157 166 235 225 172 152 291 242 196 169 150 181 294 353 68 84 293 312 47 110 226 311 289 249 253 209 198 187 204 207 192 199 203 201 196 185 191
337 334 333 330 328 332 333 306 315 324 310 305 333 326 309 322 338 39 100 21 316 262 211 172 102 166 192 185 153 125 138 264 216 182 187 182 181 140 156 203 186 194 169 113 356 239 243 318 26 122 195 150 161 231 221 156 133 238 228 147 125 133 166 238 96 97 171 219 323 10 96 139 306 262 256 257 174 203 215 211 211 203 207 208 204 197 183 188
335 333 332 328 327 328 313 294 307 307 266 328 337 327 312 319 327 99 80 21 284 274 165 215 259 170 213 168 147 160 211 240 100 214 200 171 174 123 179 213 182 187 173 119 214 260 231 292 298 135 122 153 193 215 186 149 149 243 208 130 129 161 161 124 99 90 356 53 325 326 39 112 273 270 281 76 141 202 235 220 212 208 205 201 201 197 184 184
333 331 329 325 322 319 308 287 284 274 295 334 344 332 319 318 352 82 76 327 261 297 107 127 295 199 210 104 168 214 236 75 135 239 135 156 185 134 181 209 156 174 236 128 199 259 248 236 210 150 146 205 221 215 169 157 191 232 155 105 75 84 90 85 98 100 32 50 239 286 342 115 272 290 308 20 114 187 241 239 223 211 201 189 186 187 180 176
330 328 327 324 319 320 315 279 277 276 300 336 339 328 324 349 54 66 161 259 262 257 130 138 271 182 123 131 202 227 231 272 224 133 65 127 204 58 128 138 102 140 291 28 222 255 286 282 174 154 183 207 211 187 159 171 189 144 97 71 54 43 46 54 58 82 66 1 250 261 271 123 264 288 270 257 141 195 234 255 237 215 198 181 179 179 178 179
328 325 324 318 310 308 295 282 287 267 337 340 333 327 343 35 69 100 211 252 271 280 13 194 268 40 127 165 234 223 210 243 310 104 86 108 124 45 45 73 69 79 5 341 292 294 327 334 223 247 214 162 141 131 118 20 59 89 79 77 96 12 19 33 351 45 90 260 257 256 264 106 163 265 268 255 263 245 223 231 226 203 182 172 176 175 177 177
327 324 318 309 300 279 248 255 282 273 307 327 329 351 63 77 112 190 238 303 313 283 356 282 299 352 173 208 256 235 191 198 227 145 136 145 165 184 194 183 169 94 332 270 272 329 312 249 273 303 257 142 113 132 315 4 33 82 87 77 99 40 13 20 305 8 154 237 248 242 70 104 212 245 274 284 290 282 231 225 227 194 175 169 170 168 164 156
326 322 313 303 290 269 258 264 275 277 294 315 335 48 79 109 217 222 241 299 262 276 319 267 312 328 274 259 244 236 191 204 223 192 150 138 163 201 226 200 153 145 222 212 209 304 288 296 320 322 284 187 132 145 208 271 76 134 131 113 124 107 78 231 264 304 231 242 265 284 251 245 269 280 302 306 303 297 248 204 143 120 138 146 139 129 121 118
325 322 313 301 283 270 268 268 261 255 272 324 42 64 93 150 233 230 234 254 253 305 337 313 322 320 263 240 236 198 146 234 206 170 153 127 143 207 242 239 169 156 162 152 181 183 165 305 284 198 267 259 161 171 170 158 148 182 165 132 142 151 142 204 222 183 212 229 282 305 259 171 196 291 313 315 314 353 52 67 79 81 80 87 78 67 70 69
325 321 314 298 279 272 266 254 241 224 204 72 66 91 149 202 242 223 219 241 267 324 327 321 328 332 292 262 281 79 119 243 191 136 155 155 168 193 204 219 201 153 124 156 220 165 136 237 254 250 260 173 197 231 142 116 101 246 150 107 143 186 149 135 182 169 170 152 261 266 214 202 212 283 323 341 7 35 51 59 77 86 84 83 78 68 62 49
326 325 317 289 276 277 264 238 217 194 167 99 87 170 204 215 214 191 221 235 40 338 333 339 359 4 309 288 307 359 59 66 53 96 195 189 182 199 207 225 199 169 157 162 208 181 118 247 277 315 335 152 185 206 116 103 164 214 132 156 213 175 122 106 141 78 75 108 251 254 220 309 338 338 336 357 22 28 31 40 65 93 99 94 91 89 85 75
328 330 315 280 294 289 258 217 186 171 144 99 140 209 217 217 209 199 257 350 42 14 31 9 325 244 269 294 301 319 4 22 7 28 235 239 297 283 272 270 196 189 190 159 178 206 143 239 288 340 62 311 267 112 76 74 127 122 184 199 171 76 92 102 109 19 47 140 270 339 272 301 22 85 322 350 24 26 18 23 34 59 96 103 98 94 100 110
324 326 297 308 325 300 235 191 165 152 106 102 171 236 212 220 238 206 337 358 343 8 56 204 251 226 214 262 276 284 3 29 349 4 268 251 232 234 260 272 207 201 212 166 143 223 124 145 289 287 174 300 350 69 50 351 64 123 187 187 97 98 157 91 116 129 101 181 276 346 332 258 169 212 287 310 89 71 35 42 62 58 83 109 106 99 104 107
321 324 320 344 344 295 189 167 152 127 74 142 189 254 210 230 273 269 311 332 275 244 256 221 226 265 245 206 185 206 160 173 172 73 262 266 219 209 140 256 306 2 8 123 145 182 97 132 267 279 233 305 4 52 48 317 337 22 43 14 47 125 157 151 141 147 143 166 218 342 4 278 221 220 230 243 220 156 144 140 113 102 93 101 104 102 105 104
333 3 359 356 351 186 160 148 135 99 122 170 188 219 231 252 270 269 260 275 254 217 237 224 217 263 258 228 195 182 161 172 157 136 194 190 193 239 331 119 302 349 27 69 105 89 61 115 209 281 316 33 16 63 157 185 307 11 32 9 357 44 108 138 104 93 130 142 166 154 63 269 251 208 207 244 236 187 168 160 147 128 101 83 87 93 100 110
2 68 354 1 7 166 149 127 118 107 152 176 184 206 262 271 253 286 255 228 230 237 234 229 236 243 240 251 238 191 152 165 149 121 186 224 138 198 264 173 132 339 27 49 42 60 88 130 168 303 4 76 214 260 172 165 156 127 107 62 144 147 120 123 123 309 111 126 160 153 158 262 264 207 247 260 231 215 191 154 147 147 128 114 106 104 106 109
25 107 343 4 18 177 139 67 197 98 134 179 208 200 232 240 231 289 271 230 221 229 231 228 237 234 222 238 230 169 135 159 171 138 173 237 178 166 246 194 112 80 85 76 333 226 126 104 104 67 346 175 255 321 19 89 113 104 94 103 131 133 101 121 171 228 98 103 146 117 116 257 272 351 324 315 81 274 238 157 143 138 128 125 120 113 111 111
42 218 332 6 11 196 84 37 258 358 67 231 278 232 212 228 233 281 273 263 234 232 243 236 231 209 188 225 217 112 95 98 199 164 157 224 275 170 242 24 83 70 73 96 268 277 83 85 87 3 313 331 325 332 3 42 71 68 34 31 70 53 97 141 172 176 128 131 141 89 78 258 288 356 359 34 64 50 22 113 131 130 116 109 116 115 117 120
355 243 316 9 15 62 111 50 348 333 286 294 321 282 251 231 226 241 249 297 349 286 289 332 325 344 36 84 68 54 56 87 14 16 134 127 326 318 34 51 75 70 44 160 179 232 8 96 103 96 29 8 350 338 349 1 31 62 354 337 1 38 68 100 111 76 96 166 148 118 173 253 286 5 18 33 59 65 49 48 96 123 125 124 127 128 132 138
346 333 293 5 15 39 114 164 194 281 288 312 311 289 297 274 249 249 202 77 25 351 3 341 326 342 6 52 58 19 20 75 65 3 48 79 4 1 10 33 74 86 140 155 135 106 103 116 110 125 157 171 184 250 251 292 359 19 346 348 360 31 50 73 78 69 106 172 109 124 184 241 313 7 10 5 36 66 69 75 88 119 144 152 155 157 159 158
25 22 341 341 6 32 87 216 56 349 302 289 304 322 337 320 312 348 75 82 37 26 45 5 339 5 17 38 63 27 9 23 45 43 31 4 356 1 347 3 36 34 90 96 78 83 95 67 83 119 144 175 181 202 208 151 86 71 328 355 354 1 45 82 88 99 165 134 60 252 179 130 355 354 354 342 346 12 56 105 116 140 156 163 167 163 157 153
76 22 358 332 343 14 18 6 10 353 328 2 73 3 354 349 351 9 27 40 21 32 53 28 19 30 8 26 85 55 355 357 22 39 16 342 319 320 350 41 41 359 3 61 51 75 90 49 62 93 67 78 162 142 114 102 96 110 77 7 349 354 52 83 97 138 138 110 65 285 82 83 357 334 343 330 324 342 5 5 2 356 15 46 106 116 101 88
56 79 337 350 1 14 20 5 356 355 0 12 44 28 15 25 36 18 345 358 22 25 58 36 18 21 11 25 110 70 358 9 22 8 350 349 342 336 354 28 25 358 7 40 24 81 103 89 196 104 67 50 81 98 103 96 81 70 58 34 17 31 66 93 108 26 108 122 174 179 87 79 342 326 333 322 320 360 31 8 360 4 359 7 25 29 31 31
44 59 319 348 48 28 346 324 1 21 13 5 11 28 28 32 35 17 340 3 18 12 48 67 15 12 22 36 90 83 17 43 42 358 349 351 334 353 17 1 344 357 26 48 18 80 109 152 232 121 90 61 51 95 113 102 84 59 41 38 63 71 73 81 66 54 87 103 129 109 89 72 1 328 323 320 323 22 56 36 26 25 14 17 32 29 19 14
40 11 328 359 40 13 347 340 35 53 22 1 7 15 16 24 25 19 19 40 41 360 24 78 62 32 40 44 67 88 82 116 104 305 335 13 341 10 45 352 318 342 3 36 9 31 95 150 223 95 85 39 18 59 97 101 102 86 49 25 55 72 59 46 35 47 79 91 100 94 84 58 1 340 330 334 6 46 51 40 33 30 22 30 39 33 24 19
351 265 353 59 32 0 356 349 29 71 35 0 1 359 2 9 8 15 33 36 54 40 26 106 108 40 48 50 55 63 238 194 205 243 229 202 258 288 295 245 12 352 348 9 355 3 73 117 35 63 92 275 358 70 100 97 91 78 42 6 17 59 71 54 31 24 98 132 113 79 83 44 313 329 343 14 45 51 47 38 32 28 25 36 43 36 34 34
355 315 34 90 78 7 355 351 19 59 59 2 355 355 357 358 359 26 70 32 26 30 18 132 102 50 41 36 29 343 281 241 234 249 238 222 241 249 254 265 342 2 320 358 24 26 81 114 108 85 118 234 303 76 117 88 77 52 323 325 47 96 110 95 50 22 35 121 118 101 131 217 297 340 25 41 49 52 47 38 34 29 26 32 40 38 38 40